This is the latest recevied weather packets stored in our database for station/object G4ZMG. If no packets are shown the sender has not sent any weather packets the latest 10 day(s).
| Time | Temp. | Humidity | Pressure | Rain* | Wind** | Luminosity | Snow |
|---|---|---|---|---|---|---|---|
| 1777720831 | 16.11° C | 68% | 1014.8 hPa | 0 mm | - | 476 W/m² | - |
| 1777720222 | 16.11° C | 68% | 1014.9 hPa | 0 mm | - | 492 W/m² | - |
| 1777719628 | 16.11° C | 67% | 1015 hPa | 0 mm | - | 670 W/m² | - |
| 1777719010 | 16.11° C | 67% | 1015 hPa | 0 mm | - | 643 W/m² | - |
| 1777717801 | 15.56° C | 68% | 1015.4 hPa | 0 mm | - | 557 W/m² | - |
| 1777717239 | 16.11° C | 67% | 1015.3 hPa | 0 mm | - | 468 W/m² | - |
| 1777716628 | 15.56° C | 71% | 1015.6 hPa | 0 mm | - | 710 W/m² | - |
| 1777716037 | 15.56° C | 70% | 1015.5 hPa | 0 mm | - | 394 W/m² | - |
| 1777715431 | 15° C | 71% | 1015.5 hPa | 0 mm | - | 788 W/m² | - |
| 1777714827 | 15° C | 72% | 1015.5 hPa | 0 mm | - | 200 W/m² | - |
| 1777714210 | 15° C | 71% | 1015.6 hPa | 0 mm | - | 636 W/m² | - |
| 1777713608 | 15° C | 73% | 1015.6 hPa | 0 mm | - | 638 W/m² | - |
| 1777713047 | 14.44° C | 74% | 1015.8 hPa | 0 mm | - | 624 W/m² | - |
| 1777712425 | 14.44° C | 76% | 1015.9 hPa | 0 mm | - | 606 W/m² | - |
| 1777711842 | 13.89° C | 79% | 1016.3 hPa | 0 mm | - | 585 W/m² | - |
| 1777711237 | 12.78° C | 79% | 1016.3 hPa | 0 mm | - | 151 W/m² | - |
| 1777710629 | 13.89° C | 81% | 1016.5 hPa | 0 mm | - | 580 W/m² | - |
| 1777710011 | 13.33° C | 84% | 1016.5 hPa | 0 mm | - | 503 W/m² | - |
| 1777709402 | 12.78° C | 86% | 1016.4 hPa | 0 mm | - | 448 W/m² | - |
| 1777708829 | 11.67° C | 87% | 1016.5 hPa | 0 mm | - | 355 W/m² | - |
| 1777708203 | 11.67° C | 88% | 1016.3 hPa | 0 mm | - | 417 W/m² | - |
| 1777707637 | 11.11° C | 88% | 1016.2 hPa | 0 mm | - | 179 W/m² | - |
| 1777707022 | 11.11° C | 89% | 1016.3 hPa | 0 mm | - | 216 W/m² | - |
| 1777706406 | 10.56° C | 89% | 1016.2 hPa | 0 mm | - | 190 W/m² | - |
| 1777705802 | 10.56° C | 89% | 1016.5 hPa | 0 mm | - | 197 W/m² | - |
* Rain latest hour (hover to see other rain measurements)
** Current wind speed in m/s (hover to see current wind gust speed)